When you browse on this site, cookies collect data to enhance your experience and personalize the content and advertising you see.
Visit our Privacy Policy to learn more. By continuing to use the site, you agree to this use of cookies and data.
  • In Hungary
  • List of Countries
  • For 7 days
  • Water Temperature
  • Weather Map
  • News
  • Weather Widgets
  • user-avatar
    Login

    Hourly Weather Azarnikovo

    Today, 25 January, Saturday

    Time Temperature Precipitation Wind Pressure Humidity
    00:00 -1°C° 0.2 mm 4 mps 736 mmHg 96%
    01:00 -1°C° 0.2 mm 5 mps 736 mmHg 95%
    02:00 -1°C° 0.2 mm 5 mps 736 mmHg 94%
    03:00 -1°C° 0 mm 5 mps 736 mmHg 92%
    04:00 -1°C° 0 mm 4 mps 735 mmHg 89%
    05:00 -2°C° 0 mm 4 mps 735 mmHg 86%
    06:00 -2°C° 0 mm 4 mps 735 mmHg 86%
    07:00 -2°C° 0 mm 4 mps 735 mmHg 87%
    08:00 -1°C° 0 mm 3 mps 735 mmHg 87%
    09:00 -1°C° 0 mm 4 mps 735 mmHg 86%
    10:00 -1°C° 0 mm 4 mps 734 mmHg 85%
    11:00 0°C° 0 mm 5 mps 734 mmHg 84%
    12:00 0°C° 0.3 mm 5 mps 734 mmHg 79%
    13:00 -2°C° 0.3 mm 6 mps 734 mmHg 75%
    14:00 -2°C° 0.3 mm 6 mps 733 mmHg 71%
    15:00 -2°C° 0 mm 6 mps 734 mmHg 73%
    16:00 -3°C° 0 mm 6 mps 735 mmHg 75%
    17:00 -4°C° 0 mm 5 mps 735 mmHg 77%
    18:00 -4°C° 0 mm 6 mps 736 mmHg 79%
    19:00 -4°C° 0 mm 6 mps 736 mmHg 80%
    20:00 -4°C° 0 mm 6 mps 737 mmHg 82%
    21:00 -5°C° 0 mm 6 mps 737 mmHg 82%
    22:00 -5°C° 0 mm 6 mps 738 mmHg 81%
    23:00 -5°C° 0 mm 6 mps 739 mmHg 81%

    Tomorrow, 26 January, Sunday

    Time Temperature Precipitation Wind Pressure Humidity
    00:00 -5°C° 0 mm 5 mps 740 mmHg 81%
    01:00 -5°C° 0 mm 5 mps 741 mmHg 81%
    02:00 -6°C° 0 mm 5 mps 741 mmHg 81%
    03:00 -5°C° 0 mm 4 mps 742 mmHg 81%
    04:00 -5°C° 0 mm 4 mps 743 mmHg 82%
    05:00 -5°C° 0 mm 4 mps 743 mmHg 83%
    06:00 -5°C° 0 mm 4 mps 744 mmHg 83%
    07:00 -5°C° 0 mm 3 mps 744 mmHg 84%
    08:00 -6°C° 0 mm 3 mps 745 mmHg 85%
    09:00 -5°C° 0 mm 3 mps 745 mmHg 83%
    10:00 -4°C° 0 mm 3 mps 746 mmHg 81%
    11:00 -2°C° 0 mm 3 mps 746 mmHg 79%
    12:00 -3°C° 0 mm 4 mps 746 mmHg 79%
    13:00 -3°C° 0 mm 4 mps 745 mmHg 79%
    14:00 -4°C° 0 mm 5 mps 745 mmHg 78%
    15:00 -4°C° 0.3 mm 5 mps 744 mmHg 83%
    16:00 -4°C° 0.3 mm 6 mps 743 mmHg 88%
    17:00 -4°C° 0.3 mm 6 mps 743 mmHg 93%
    18:00 -3°C° 0.1 mm 6 mps 742 mmHg 93%
    19:00 -2°C° 0.1 mm 6 mps 742 mmHg 94%
    20:00 -1°C° 0.1 mm 6 mps 741 mmHg 94%
    21:00 -1°C° 0.1 mm 6 mps 741 mmHg 94%
    22:00 +1°C° 0.1 mm 5 mps 741 mmHg 93%
    23:00 +1°C° 0.1 mm 5 mps 741 mmHg 92%

    Day after tomorrow, 27 January, Monday

    Time Temperature Precipitation Wind Pressure Humidity
    00:00 +1°C° 0.1 mm 5 mps 741 mmHg 93%
    01:00 +1°C° 0.1 mm 5 mps 742 mmHg 93%
    02:00 +1°C° 0.1 mm 5 mps 742 mmHg 93%
    03:00 +1°C° 0.1 mm 5 mps 742 mmHg 94%
    04:00 +1°C° 0.1 mm 4 mps 743 mmHg 95%
    05:00 +1°C° 0.1 mm 4 mps 743 mmHg 95%
    06:00 +1°C° 0.1 mm 4 mps 744 mmHg 96%
    07:00 +1°C° 0.1 mm 3 mps 744 mmHg 97%
    08:00 +2°C° 0.1 mm 2 mps 745 mmHg 98%
    09:00 +2°C° 0.1 mm 2 mps 745 mmHg 97%
    10:00 +1°C° 0.1 mm 2 mps 745 mmHg 97%
    11:00 +1°C° 0.1 mm 2 mps 746 mmHg 97%
    12:00 +1°C° 0.3 mm 2 mps 746 mmHg 97%
    13:00 -1°C° 0.3 mm 2 mps 746 mmHg 97%
    14:00 -1°C° 0.3 mm 2 mps 746 mmHg 97%
    15:00 -1°C° 0.4 mm 2 mps 746 mmHg 97%
    16:00 -1°C° 0.4 mm 2 mps 746 mmHg 97%
    17:00 -1°C° 0.4 mm 2 mps 746 mmHg 98%
    18:00 -1°C° 0.5 mm 2 mps 746 mmHg 98%
    19:00 -1°C° 0.5 mm 2 mps 746 mmHg 98%
    20:00 -1°C° 0.5 mm 2 mps 746 mmHg 98%
    21:00 -1°C° 0.5 mm 2 mps 746 mmHg 98%
    22:00 -1°C° 0.5 mm 2 mps 746 mmHg 98%
    23:00 -1°C° 0.5 mm 2 mps 746 mmHg 98%

    28 January, Tuesday

    Time Temperature Precipitation Wind Pressure Humidity
    00:00 +1°C° 0.3 mm 2 mps 745 mmHg 98%
    01:00 +1°C° 0.3 mm 2 mps 745 mmHg 98%
    02:00 +1°C° 0.3 mm 2 mps 745 mmHg 98%
    03:00 +1°C° 0.2 mm 2 mps 745 mmHg 98%
    04:00 +1°C° 0.2 mm 2 mps 745 mmHg 98%
    05:00 +1°C° 0.2 mm 2 mps 744 mmHg 98%
    06:00 +1°C° 0.2 mm 2 mps 744 mmHg 98%
    07:00 +1°C° 0.2 mm 2 mps 744 mmHg 98%
    08:00 +1°C° 0.2 mm 2 mps 744 mmHg 98%
    09:00 +1°C° 0 mm 2 mps 744 mmHg 98%
    10:00 +1°C° 0 mm 2 mps 744 mmHg 98%
    11:00 +1°C° 0 mm 2 mps 744 mmHg 98%
    12:00 +1°C° 0 mm 2 mps 744 mmHg 98%
    13:00 +1°C° 0 mm 2 mps 744 mmHg 98%
    14:00 +1°C° 0 mm 2 mps 744 mmHg 98%
    15:00 +1°C° 0 mm 2 mps 744 mmHg 98%
    16:00 +1°C° 0 mm 2 mps 744 mmHg 98%
    17:00 +1°C° 0 mm 2 mps 744 mmHg 98%
    18:00 +1°C° 0 mm 2 mps 744 mmHg 98%
    19:00 -1°C° 0 mm 2 mps 744 mmHg 97%
    20:00 -1°C° 0 mm 2 mps 744 mmHg 97%
    21:00 -1°C° 0 mm 2 mps 744 mmHg 96%
    22:00 -1°C° 0 mm 2 mps 744 mmHg 96%
    23:00 -2°C° 0 mm 2 mps 744 mmHg 95%

    29 January, Wednesday

    Time Temperature Precipitation Wind Pressure Humidity
    00:00 -2°C° 0 mm 2 mps 744 mmHg 96%
    01:00 -2°C° 0 mm 2 mps 744 mmHg 96%
    02:00 -1°C° 0 mm 2 mps 743 mmHg 96%
    03:00 -1°C° 0 mm 2 mps 743 mmHg 96%
    04:00 -1°C° 0 mm 2 mps 743 mmHg 96%
    05:00 -1°C° 0 mm 3 mps 743 mmHg 97%
    06:00 -1°C° 0 mm 3 mps 743 mmHg 96%
    07:00 -1°C° 0 mm 3 mps 743 mmHg 96%
    08:00 -1°C° 0 mm 3 mps 743 mmHg 96%
    09:00 -1°C° 0 mm 4 mps 743 mmHg 94%
    10:00 -1°C° 0 mm 4 mps 743 mmHg 93%
    11:00 -1°C° 0 mm 4 mps 742 mmHg 91%
    12:00 -1°C° 0 mm 4 mps 742 mmHg 91%
    13:00 -1°C° 0 mm 4 mps 742 mmHg 92%
    14:00 -1°C° 0 mm 4 mps 742 mmHg 92%
    15:00 -1°C° 0 mm 4 mps 741 mmHg 94%
    16:00 -1°C° 0 mm 4 mps 741 mmHg 95%
    17:00 -1°C° 0 mm 4 mps 741 mmHg 97%
    18:00 -1°C° 0 mm 4 mps 741 mmHg 96%
    19:00 -1°C° 0 mm 4 mps 741 mmHg 96%
    20:00 0°C° 0 mm 4 mps 740 mmHg 96%
    21:00 0°C° 0 mm 4 mps 740 mmHg 95%
    22:00 0°C° 0 mm 4 mps 739 mmHg 95%
    23:00 0°C° 0 mm 4 mps 739 mmHg 94%

    30 January, Thursday

    Time Temperature Precipitation Wind Pressure Humidity
    00:00 0°C° 0.1 mm 4 mps 738 mmHg 95%
    01:00 0°C° 0.1 mm 5 mps 738 mmHg 96%
    02:00 -1°C° 0.1 mm 5 mps 737 mmHg 96%
    03:00 0°C° 0.2 mm 5 mps 737 mmHg 97%
    04:00 0°C° 0.2 mm 5 mps 736 mmHg 97%
    05:00 0°C° 0.2 mm 5 mps 736 mmHg 97%
    06:00 0°C° 0.6 mm 5 mps 736 mmHg 97%
    07:00 -1°C° 0.6 mm 5 mps 736 mmHg 97%
    08:00 -1°C° 0.6 mm 4 mps 736 mmHg 97%
    09:00 -1°C° 0 mm 4 mps 736 mmHg 92%
    10:00 -1°C° 0 mm 4 mps 736 mmHg 87%
    11:00 -1°C° 0 mm 4 mps 736 mmHg 82%
    12:00 -1°C° 0 mm 4 mps 737 mmHg 82%
    13:00 -1°C° 0 mm 4 mps 737 mmHg 81%
    14:00 -1°C° 0 mm 4 mps 737 mmHg 81%
    15:00 -1°C° 0 mm 5 mps 737 mmHg 83%
    16:00 -2°C° 0 mm 5 mps 737 mmHg 85%
    17:00 -2°C° 0 mm 5 mps 737 mmHg 88%
    18:00 -2°C° 0 mm 5 mps 737 mmHg 88%
    19:00 -1°C° 0 mm 5 mps 737 mmHg 88%
    20:00 -1°C° 0 mm 5 mps 737 mmHg 88%
    21:00 -1°C° 0 mm 5 mps 737 mmHg 89%
    22:00 -1°C° 0 mm 5 mps 737 mmHg 91%
    23:00 -2°C° 0 mm 5 mps 737 mmHg 92%
    Show more